Glens Falls, NY

12:28 AM EST on December 16, 2019 (GMT -0500)
Bennett Memorial

Weather History for KGFL - October, 2019

Change the Weather History Date:

Wednesday, October 16, 2019

  Actual Average Record
Temperature  
Mean Temperature 45 °F 46 °F  
Max Temperature 60 °F 58 °F 83 °F (1897)
Min Temperature 29 °F 35 °F 21 °F (1978)
Degree Days  
Heating Degree Days 20 19  
Month to date heating degree days 233 254  
Since 1 July heating degree days 455 539  
Cooling Degree Days 0 0  
Month to date cooling degree days 0 0  
Year to date cooling degree days 416 351  
Moisture  
Dew Point 37 °F    
Average Humidity 75    
Maximum Humidity 96    
Minimum Humidity 53    
Precipitation  
Precipitation 1.07 in 0.11 in 2.80 in (1955)
Month to date precipitation 2.49 1.85  
Year to date precipitation 33.34 31.04  
Sea Level Pressure  
Sea Level Pressure 29.86 in    
Wind  
Wind Speed 4 mph (NNE)    
Max Wind Speed 18 mph    
Max Gust Speed 25 mph    
Visibility 7 miles    
Events Rain    
T = Trace of Precipitation, MM = Missing Value Source: NWS Daily Summary

Daily Weather History Graph

Daily Weather History Graph

Search for Another Location

Airport or City:

Astronomy

Oct. 16, 2019 Rise Set
Actual Time 7:09 AM EDT 6:10 PM EDT
Civil Twilight 6:40 AM EDT 6:38 PM EDT
Nautical Twilight 6:07 AM EDT 7:11 PM EDT
Astronomical Twilight 5:34 AM EDT 7:44 PM EDT
Moon 7:58 PM EDT 9:40 AM EDT
Length of Visible Light 11h 58m
Length of Day
11h 00m
Waning Gibbous, 93% of the Moon is Illuminated
Oct 16
Waning Gibbous
Oct 21
Last Quarter
Oct 27
New
Nov 4
First Quarter
Nov 12
Full

Hourly Weather History & Observations

Time (EDT) Temp. Windchill Dew Point Humidity Pressure Visibility Wind Dir Wind Speed Gust Speed Precip Events Conditions
12:21 AM 32.0 °F - 32.0 °F 100% 30.04 in 2.5 mi Calm Calm - N/A   Clear
12:29 AM 33.1 °F - 32.0 °F 96% 30.04 in 9.0 mi Calm Calm - N/A   Clear
12:53 AM 32.0 °F - 30.9 °F 96% 30.05 in 9.0 mi Calm Calm - N/A   Clear
1:53 AM 32.0 °F - 30.9 °F 96% 30.06 in 8.0 mi Calm Calm - N/A   Clear
2:22 AM 32.0 °F - 30.0 °F 92% 30.04 in 2.5 mi Calm Calm - N/A   Clear
2:29 AM 32.0 °F - 30.9 °F 96% 30.04 in 7.0 mi Calm Calm - N/A   Clear
2:53 AM 30.9 °F - 28.9 °F 92% 30.05 in 10.0 mi Calm Calm - N/A   Clear
3:10 AM 30.0 °F - 28.9 °F 96% 30.03 in 1.5 mi Calm Calm - N/A   Clear
3:30 AM 30.9 °F - 30.0 °F 96% 30.02 in 3.0 mi Calm Calm - N/A   Clear
3:53 AM 30.9 °F - 28.0 °F 89% 30.02 in 7.0 mi Calm Calm - N/A   Clear
4:06 AM 30.9 °F - 28.9 °F 92% 30.00 in 1.8 mi Calm Calm - N/A   Clear
4:27 AM 30.9 °F 27.5 °F 28.9 °F 92% 30.00 in 4.0 mi NW 3.5 mph - N/A   Clear
4:53 AM 30.9 °F - 28.9 °F 92% 30.02 in 10.0 mi Calm Calm - N/A   Clear
5:15 AM 30.0 °F - 28.0 °F 92% 30.00 in 2.5 mi Calm Calm - N/A   Clear
5:23 AM 30.0 °F - 28.9 °F 96% 29.99 in 9.0 mi Calm Calm - N/A   Clear
5:53 AM 30.9 °F - 28.9 °F 92% 30.00 in 10.0 mi Calm Calm - N/A   Clear
6:08 AM 30.0 °F - 28.9 °F 96% 29.98 in 1.5 mi Calm Calm - N/A   Clear
6:18 AM 30.0 °F - 28.9 °F 96% 29.98 in 3.0 mi Calm Calm - N/A   Scattered Clouds
6:29 AM 32.0 °F - 30.0 °F 92% 29.97 in 10.0 mi Calm Calm - N/A   Mostly Cloudy
6:53 AM 30.9 °F - 28.9 °F 92% 29.98 in 9.0 mi Calm Calm - N/A   Mostly Cloudy
7:27 AM 33.1 °F - 30.9 °F 92% 29.96 in 10.0 mi Calm Calm - N/A   Scattered Clouds
7:53 AM 34.0 °F - 32.0 °F 92% 29.96 in 10.0 mi Calm Calm - N/A   Clear
8:53 AM 39.9 °F - 37.9 °F 93% 29.93 in 10.0 mi Calm Calm - N/A   Clear
9:53 AM 48.9 °F - 41.0 °F 74% 29.91 in 10.0 mi Calm Calm - N/A   Mostly Cloudy
10:53 AM 52.0 °F - 42.1 °F 69% 29.89 in - North - - N/A   Unknown
11:53 AM - - - N/A% 29.85 in - North - - N/A   Unknown
12:53 PM - - - N/A% 29.81 in - North - - N/A   Unknown
1:53 PM 59.0 °F - 43.0 °F 55% 29.79 in 10.0 mi Calm Calm - N/A   Overcast
2:53 PM 59.0 °F - 44.1 °F 58% 29.77 in 10.0 mi Variable 3.5 mph - N/A   Overcast
3:53 PM 60.1 °F - 45.0 °F 57% 29.74 in 10.0 mi SSE 10.4 mph - N/A   Overcast
4:53 PM 57.0 °F - 46.9 °F 69% 29.68 in 10.0 mi East 3.5 mph - 0.00 in Rain Light Rain
5:29 PM 54.0 °F - 50.0 °F 86% 29.65 in 2.0 mi Calm Calm - 0.05 in Rain Rain
5:40 PM 53.1 °F - 51.1 °F 93% 29.65 in 7.0 mi NNW 3.5 mph - 0.06 in Rain Light Rain
5:53 PM 53.1 °F - 50.0 °F 89% 29.65 in 4.0 mi Calm Calm - 0.07 in Rain Light Rain
6:53 PM 52.0 °F - 50.0 °F 93% 29.63 in 5.0 mi NE 4.6 mph - 0.09 in Rain Light Rain
7:53 PM 52.0 °F - 48.0 °F 86% 29.60 in 6.0 mi ENE 8.1 mph - 0.11 in Rain Rain
8:53 PM 51.1 °F - 48.0 °F 89% 29.56 in 9.0 mi NE 9.2 mph - 0.09 in Rain Light Rain
9:53 PM 50.0 °F - 46.9 °F 89% 29.50 in 5.0 mi North 11.5 mph - 0.09 in Rain Light Rain
10:53 PM 50.0 °F - 48.0 °F 93% 29.39 in 5.0 mi North 12.7 mph - 0.10 in Rain Rain
11:53 PM 50.0 °F - 48.0 °F 93% 29.29 in 5.0 mi NNW 11.5 mph - 0.17 in Rain Rain